Regional Weather Roundup
Issued by NWS Little Rock, AR

Home | Current Version | Previous Version | Graphics & Text | Print | Product List | Glossary On
Versions: 1 2 3 4 5 6 7 8 9 10 11 12 13 14 15 16 17 18 19 20 21 22 23 24 25 26 27 28 29 30 31
000
ASUS44 KLZK 240305
RWRLZK

WEATHER ROUNDUP FOR ARKANSAS
NATIONAL WEATHER SERVICE LITTLE ROCK AR
1000 PM CDT THU MAR 23 2017

NOTE: "FAIR" INDICATES FEW OR NO CLOUDS BELOW 12,000 FEET WITH NO
SIGNIFICANT WEATHER AND/OR OBSTRUCTIONS TO VISIBILITY.

ARZ001-003-010-029-240400-
NORTHWEST ARKANSAS

CITY           SKY/WX    TMP DP  RH WIND       PRES   REMARKS
FAYETTEVILLE   CLEAR     72  49  44 S16G29    29.94S
FORT SMITH     CLEAR     74  49  41 SE7       29.93S
HARRISON       CLEAR     68  46  45 SE14      29.99R
BENTONVILLE    CLEAR     72  46  40 S16G25    29.94S
ROGERS         CLEAR     69  48  47 S14       29.94F
SILOAM SPGS    CLEAR     72  48  43 S17G23    29.92S
HIGHFILL       CLEAR     70  50  49 S17       29.92F
$$

ARZ004-005-016-240400-
NORTH CENTRAL ARKANSAS

CITY           SKY/WX    TMP DP  RH WIND       PRES   REMARKS
BATESVILLE     CLEAR     72  52  49 SE7       30.05R
FLIPPIN        CLEAR     66  50  55 CALM      29.98R
MTN HOME       CLEAR     66  52  60 SE8       30.00
$$

ARZ040-041-240400-
WEST CENTRAL ARKANSAS

CITY           SKY/WX    TMP DP  RH WIND       PRES   REMARKS
MENA           CLEAR     77  48  36 SE15G24   29.99R
MOUNT IDA      CLEAR     76  46  34 S9G18     29.98S
$$

ARZ009-017-025-026-028-240400-
NORTHEAST ARKANSAS

CITY           SKY/WX    TMP DP  RH WIND       PRES   REMARKS
CORNING        FAIR      63  55  77 SE12      30.06S
JONESBORO      CLEAR     66  54  65 S8        30.07R
NEWPORT        CLEAR     66  56  70 MISG      30.05S
WALNUT RIDGE   CLEAR     64  54  68 SE10      30.05S
BLYTHEVILLE    CLEAR     68  53  58 SE9       30.09F
$$

ARZ022-023-033-042-044-240400-
CENTRAL ARKANSAS

CITY           SKY/WX    TMP DP  RH WIND       PRES   REMARKS
LITTLE ROCK    CLEAR     69  53  56 S5        30.04R
N LITTLE ROCK    N/A     72  54  53 S7        30.05R
JACKSONVILLE   CLEAR     73  55  54 SE7       30.04R
CONWAY           N/A     70  52  52 SE10      30.01R
SEARCY         CLEAR     69  56  62 S9        30.06S
HOT SPRINGS    CLEAR     74  48  39 SE3       30.03R
RUSSELLVILLE   CLEAR     71  46  40 CALM      30.00R
CLINTON        FAIR      59  55  88 CALM      30.03R
$$

ARZ036-240400-
EAST ARKANSAS

CITY           SKY/WX    TMP DP  RH WIND       PRES   REMARKS
WEST MEMPHIS   CLEAR     69  54  58 SE13      30.08S
$$

ARZ050-053-066-070-073-240400-
SOUTHWEST ARKANSAS

CITY           SKY/WX    TMP DP  RH WIND       PRES   REMARKS
ARKADELPHIA    FAIR      63  56  78 CALM      30.03R
CAMDEN         CLEAR     72  46  40 SE6       30.04R
TEXARKANA      PTCLDY    73  50  44 S10       30.00S
EL DORADO      CLEAR     70  47  43 SE5       30.05S
DE QUEEN       PTCLDY    75  51  43 SE7       29.97R
$$

ARZ056-057-069-240400-
SOUTHEAST ARKANSAS

CITY           SKY/WX    TMP DP  RH WIND       PRES   REMARKS
PINE BLUFF     CLEAR     70  51  51 SE9       30.06R
STUTTGART      CLEAR     70  48  46 SE10      30.07S
MONTICELLO     CLEAR     69  52  54 CALM      30.07S

$$






USA.gov is the U.S. government's official web portal to all federal, state and local government web resources and services.